TimeEST,TemperatureF,Dew PointF,Humidity,Sea Level PressureIn,VisibilityMPH,Wind Direction,Wind SpeedMPH,Gust SpeedMPH,PrecipitationIn,Events,Conditions,WindDirDegrees,DateUTC
12:15 AM,42.8,33.8,70,29.99,10.0,Calm,Calm,-,N/A,,Overcast,0,2013-12-02 05:15:00
12:35 AM,42.8,33.8,70,29.98,10.0,Calm,Calm,-,N/A,,Overcast,0,2013-12-02 05:35:00
12:55 AM,41.0,35.6,81,29.98,10.0,Calm,Calm,-,N/A,,Overcast,0,2013-12-02 05:55:00
1:15 AM,41.0,35.6,81,29.97,10.0,Calm,Calm,-,N/A,,Overcast,0,2013-12-02 06:15:00
1:35 AM,42.8,33.8,70,29.96,10.0,Calm,Calm,-,N/A,,Overcast,0,2013-12-02 06:35:00
1:55 AM,41.0,35.6,81,29.96,10.0,Calm,Calm,-,N/A,,Overcast,0,2013-12-02 06:55:00
2:15 AM,41.0,35.6,81,29.96,10.0,Calm,Calm,-,N/A,,Overcast,0,2013-12-02 07:15:00
2:35 AM,41.0,35.6,81,29.95,10.0,Calm,Calm,-,N/A,,Overcast,0,2013-12-02 07:35:00
2:55 AM,41.0,35.6,81,29.95,10.0,Calm,Calm,-,N/A,,Overcast,0,2013-12-02 07:55:00
3:15 AM,41.0,35.6,81,29.94,10.0,Calm,Calm,-,N/A,,Overcast,0,2013-12-02 08:15:00
3:35 AM,41.0,35.6,81,29.94,10.0,Calm,Calm,-,N/A,,Overcast,0,2013-12-02 08:35:00
3:55 AM,41.0,35.6,81,29.93,10.0,Calm,Calm,-,N/A,,Overcast,0,2013-12-02 08:55:00
4:15 AM,41.0,35.6,81,29.92,10.0,Calm,Calm,-,N/A,,Overcast,0,2013-12-02 09:15:00
4:35 AM,41.0,35.6,81,29.92,10.0,Calm,Calm,-,N/A,,Overcast,0,2013-12-02 09:35:00
4:55 AM,41.0,35.6,81,29.92,10.0,Calm,Calm,-,N/A,,Overcast,0,2013-12-02 09:55:00
5:15 AM,41.0,35.6,81,29.92,10.0,Calm,Calm,-,N/A,,Overcast,0,2013-12-02 10:15:00
5:35 AM,41.0,35.6,81,29.91,10.0,Calm,Calm,-,N/A,,Overcast,0,2013-12-02 10:35:00
5:55 AM,41.0,35.6,81,29.91,10.0,Calm,Calm,-,N/A,,Overcast,0,2013-12-02 10:55:00
6:15 AM,41.0,35.6,81,29.91,10.0,Calm,Calm,-,N/A,,Overcast,0,2013-12-02 11:15:00
6:35 AM,41.0,35.6,81,29.92,10.0,Calm,Calm,-,N/A,,Overcast,0,2013-12-02 11:35:00
6:55 AM,41.0,35.6,81,29.91,10.0,Calm,Calm,-,N/A,,Overcast,0,2013-12-02 11:55:00
7:15 AM,41.0,35.6,81,29.91,10.0,Calm,Calm,-,N/A,,Overcast,0,2013-12-02 12:15:00
7:35 AM,41.0,35.6,81,29.91,10.0,Calm,Calm,-,N/A,,Overcast,0,2013-12-02 12:35:00
7:55 AM,41.0,35.6,81,29.92,10.0,Calm,Calm,-,N/A,,Overcast,0,2013-12-02 12:55:00
8:15 AM,41.0,35.6,81,29.92,10.0,ENE,4.6,-,N/A,,Overcast,70,2013-12-02 13:15:00
8:35 AM,42.8,33.8,70,29.92,10.0,Calm,Calm,-,N/A,,Overcast,0,2013-12-02 13:35:00
8:55 AM,42.8,35.6,76,29.91,10.0,Calm,Calm,-,N/A,,Overcast,0,2013-12-02 13:55:00
9:15 AM,44.6,33.8,66,29.91,10.0,Calm,Calm,-,N/A,,Overcast,0,2013-12-02 14:15:00
9:35 AM,44.6,35.6,71,29.91,10.0,Calm,Calm,-,N/A,,Overcast,0,2013-12-02 14:35:00
9:55 AM,44.6,33.8,66,29.91,10.0,Calm,Calm,-,N/A,,Overcast,0,2013-12-02 14:55:00
10:15 AM,44.6,35.6,71,29.91,10.0,Calm,Calm,-,N/A,,Overcast,0,2013-12-02 15:15:00
10:35 AM,44.6,35.6,71,29.91,10.0,Calm,Calm,-,N/A,,Overcast,0,2013-12-02 15:35:00
10:55 AM,46.4,35.6,66,29.90,10.0,Calm,Calm,-,N/A,,Overcast,0,2013-12-02 15:55:00
11:15 AM,46.4,35.6,66,29.89,10.0,Calm,Calm,-,N/A,,Overcast,0,2013-12-02 16:15:00
11:35 AM,48.2,35.6,62,29.87,10.0,Calm,Calm,-,N/A,,Overcast,0,2013-12-02 16:35:00
11:55 AM,48.2,35.6,62,29.87,10.0,Calm,Calm,-,N/A,,Overcast,0,2013-12-02 16:55:00
12:15 PM,48.2,35.6,62,29.86,10.0,Calm,Calm,-,N/A,,Overcast,0,2013-12-02 17:15:00
12:35 PM,50.0,35.6,58,29.85,10.0,Calm,Calm,-,N/A,,Overcast,0,2013-12-02 17:35:00
12:55 PM,50.0,37.4,62,29.84,10.0,Calm,Calm,-,N/A,,Overcast,0,2013-12-02 17:55:00
1:15 PM,50.0,37.4,62,29.84,10.0,ESE,3.5,-,N/A,,Overcast,120,2013-12-02 18:15:00
1:35 PM,50.0,39.2,66,29.83,10.0,SSE,4.6,-,N/A,,Overcast,150,2013-12-02 18:35:00
1:55 PM,50.0,39.2,66,29.82,10.0,SE,4.6,-,N/A,,Overcast,130,2013-12-02 18:55:00
2:15 PM,50.0,39.2,66,29.82,10.0,SE,4.6,-,N/A,,Overcast,130,2013-12-02 19:15:00
2:35 PM,50.0,39.2,66,29.82,10.0,SE,4.6,-,N/A,,Overcast,140,2013-12-02 19:35:00
2:55 PM,48.2,39.2,71,29.82,10.0,Calm,Calm,-,N/A,,Overcast,0,2013-12-02 19:55:00
3:15 PM,48.2,39.2,71,29.81,10.0,Calm,Calm,-,N/A,,Overcast,0,2013-12-02 20:15:00
3:35 PM,48.2,39.2,71,29.81,10.0,SSE,4.6,-,N/A,,Overcast,150,2013-12-02 20:35:00
3:55 PM,48.2,41.0,76,29.81,10.0,ESE,3.5,-,N/A,,Overcast,120,2013-12-02 20:55:00
4:15 PM,48.2,41.0,76,29.81,10.0,Calm,Calm,-,N/A,,Overcast,0,2013-12-02 21:15:00
4:35 PM,46.4,41.0,81,29.82,10.0,Calm,Calm,-,N/A,,Overcast,0,2013-12-02 21:35:00
4:55 PM,46.4,41.0,81,29.82,10.0,Calm,Calm,-,N/A,,Overcast,0,2013-12-02 21:55:00
5:15 PM,46.4,41.0,81,29.81,10.0,Calm,Calm,-,N/A,,Overcast,0,2013-12-02 22:15:00
5:35 PM,46.4,41.0,81,29.82,10.0,Calm,Calm,-,N/A,,Overcast,0,2013-12-02 22:35:00
5:55 PM,46.4,41.0,81,29.82,10.0,Calm,Calm,-,N/A,,Overcast,0,2013-12-02 22:55:00
6:15 PM,46.4,41.0,81,29.82,10.0,Calm,Calm,-,N/A,,Overcast,0,2013-12-02 23:15:00
6:35 PM,46.4,41.0,81,29.82,10.0,Calm,Calm,-,N/A,,Overcast,0,2013-12-02 23:35:00
6:55 PM,46.4,41.0,81,29.82,10.0,Calm,Calm,-,N/A,,Overcast,0,2013-12-02 23:55:00
7:15 PM,46.4,41.0,81,29.82,10.0,Calm,Calm,-,N/A,,Overcast,0,2013-12-03 00:15:00
7:35 PM,46.4,41.0,81,29.83,10.0,Calm,Calm,-,N/A,,Overcast,0,2013-12-03 00:35:00
7:55 PM,44.6,41.0,87,29.83,10.0,Calm,Calm,-,N/A,,Overcast,0,2013-12-03 00:55:00
8:15 PM,44.6,41.0,87,29.83,10.0,Calm,Calm,-,N/A,,Overcast,0,2013-12-03 01:15:00
8:35 PM,44.6,41.0,87,29.83,10.0,Calm,Calm,-,N/A,,Overcast,0,2013-12-03 01:35:00
8:55 PM,44.6,41.0,87,29.83,10.0,Calm,Calm,-,N/A,,Overcast,0,2013-12-03 01:55:00
9:15 PM,46.4,41.0,81,29.83,10.0,Calm,Calm,-,N/A,,Overcast,0,2013-12-03 02:15:00
9:35 PM,46.4,41.0,81,29.83,10.0,Calm,Calm,-,N/A,,Overcast,0,2013-12-03 02:35:00
9:55 PM,46.4,41.0,81,29.84,10.0,Calm,Calm,-,N/A,,Overcast,0,2013-12-03 02:55:00
10:15 PM,46.4,41.0,81,29.84,10.0,Calm,Calm,-,N/A,,Overcast,0,2013-12-03 03:15:00
10:35 PM,46.4,41.0,81,29.84,10.0,Calm,Calm,-,N/A,,Overcast,0,2013-12-03 03:35:00
10:55 PM,46.4,42.8,87,29.85,10.0,Calm,Calm,-,N/A,,Overcast,0,2013-12-03 03:55:00
11:15 PM,46.4,42.8,87,29.84,10.0,Calm,Calm,-,N/A,,Overcast,0,2013-12-03 04:15:00
11:35 PM,46.4,42.8,87,29.84,10.0,Calm,Calm,-,N/A,,Overcast,0,2013-12-03 04:35:00
11:55 PM,46.4,42.8,87,29.84,10.0,Calm,Calm,-,N/A,,Overcast,0,2013-12-03 04:55:00